Location: Unspecified
(64.9000°N, 0.0000°E)
Time: 17:55:51
(UTC+00:00)

Altair - Pass Details

Date: 17 June 2019
Orbit: 1501 x 1683 km, 47.2° (Epoch: 14 July)

Event Time Altitude Azimuth Distance (km) Brightness Sun altitude
Rises 03:07:50 0° 270° (W) 4,876 9.7 5.3°
Reaches altitude 10° 03:12:20 10° 253° (WSW) 3,912 9.1 5.6°
Maximum altitude 03:18:11 17° 217° (SW) 3,366 8.7 6.1°
Drops below altitude 10° 03:24:04 10° 180° (S) 3,943 9.3 6.5°
Sets 03:28:40 0° 163° (SSE) 4,929 9.9 6.8°
